[[{"header":{"parameterUnit":"m.s-1","parameterCategory":1,"la1":30.2991,"la2":30.254,"lo1":-89.0895,"lo2":-89.0444,"dy":0.0017,"dx":0.0017,"nx":28,"ny":28,"refTime":"2023-07-25T21:00:00:Z","depth":0,"parameterNumber":2,"parameterNumberName":"U-component_of_WINDS"},"data":[0,0,0,0,0,0,0,0,0,0,0,0,0,0,0,0,0,0,0,0,0,0,0,0,0,0,0,0,0,0,0,0,0,0,0,0,0,0,0,0,0,0,0,0,0,0,0,0,0,0,0,0,0,0,0,0,0,0,1.3684,1.3685,0,1.3786,1.3787,1.3788,1.3815,1.3815,1.3814,1.3813,1.3917,1.392,1.3924,0,0,0,0,0,0,0,0,0,0,0,0,0,1.3511,1.3514,1.3684,1.3685,1.3687,1.3786,1.3787,1.3789,1.3815,1.3815,1.3814,1.3813,1.3916,1.392,1.3924,0,0,0,0,0,0,0,0,0,0,0,0,0,1.3597,1.3515,1.3684,1.3712,1.3715,1.3786,1.3787,1.3789,1.3816,1.3815,1.3814,1.3813,1.3915,1.392,1.3925,1.3974,0,0,1.394,1.3942,0,0,0,0,0,0,0,0,1.3592,1.3603,1.3707,1.371,1.3714,1.3787,1.3764,1.3851,1.3816,1.3778,1.3813,1.3812,1.3875,1.3883,1.3904,1.3979,1.3983,1.394,1.3943,1.3945,1.3947,0,0,0,0,0,0,0,1.3586,1.3599,1.3724,1.3708,1.3713,1.3719,1.373,1.3781,1.383,1.3781,1.3783,1.3795,1.3876,1.3899,1.3907,1.3985,1.394,1.3945,1.3948,1.395,1.4103,1.4104,0,0,0,0,0,0,1.3575,1.3594,1.3721,1.3727,1.3649,1.3723,1.3735,1.3765,1.3829,1.3838,1.3795,1.3796,1.3891,1.3901,1.391,1.3971,1.3945,1.395,1.3953,1.4102,1.4103,1.4104,0,0,0,0,0,0,1.3571,1.3586,1.3717,1.3661,1.3678,1.3727,1.3759,1.3767,1.379,1.3841,1.3849,1.3809,1.3891,1.3903,1.3957,1.3975,1.3952,1.3957,1.41,1.4102,1.4104,1.4093,0,0,0,0,0,0,1.3566,1.3585,1.3605,1.3661,1.3681,1.3763,1.3761,1.377,1.3798,1.3799,1.3856,1.3865,1.3891,1.395,1.3962,1.3981,1.3961,1.4099,1.4101,1.4103,1.4092,1.4094,1.4096,0,0,0,0,0,1.356,1.3598,1.3605,1.3621,1.3707,1.3764,1.3775,1.3805,1.38,1.3819,1.3852,1.3863,1.3971,1.3955,1.397,1.399,1.4098,1.4101,1.4103,1.4091,1.4093,1.4096,0,0,0,0,0,0,1.3542,1.3606,1.3615,1.3672,1.3712,1.3768,1.3794,1.3807,1.3849,1.3848,1.3883,1.3896,1.3947,1.3974,1.3955,1.404,1.4035,1.404,1.4021,1.4023,1.4025,1.4017,1.3965,0,0,0,0,0,1.3544,1.3586,1.3639,1.3685,1.3704,1.3746,1.3772,1.3791,1.3834,1.3851,1.3887,1.3928,1.3971,1.3999,1.4042,1.4096,1.4108,1.4117,1.4119,1.412,1.4124,1.4153,1.4158,1.4112,1.4112,1.4112,0,0,1.355,1.359,1.3614,1.3682,1.3715,1.3756,1.376,1.3804,1.3834,1.3858,1.391,1.3939,1.3986,1.404,1.4066,1.4064,1.414,1.4123,1.4124,1.4127,1.4156,1.416,1.4164,1.4114,1.4113,1.4113,0,0,1.3582,1.3617,1.3658,1.3691,1.3741,1.3768,1.3778,1.3832,1.3851,1.3905,1.3922,1.3959,1.4033,1.4066,1.4092,1.4134,1.4146,1.4147,1.4157,1.4185,1.4188,1.4192,1.4205,1.421,1.4151,1.4151,1.4151,0,1.3583,1.3646,1.3677,1.372,1.3748,1.3771,1.3812,1.3842,1.3904,1.3922,1.392,1.4012,1.4046,1.4107,1.4117,1.4138,1.4149,1.4141,1.4185,1.4189,1.4193,1.4206,1.4211,1.4151,1.4151,1.4151,1.4151,0,1.3644,1.3687,1.3714,1.3772,1.3804,1.3845,1.3882,1.391,1.3926,1.3953,1.4006,1.4048,1.4098,1.4115,1.4131,1.4178,1.4175,1.4179,1.4173,1.4196,1.4209,1.4215,1.4151,1.4151,1.4151,1.4151,0,0,1.3667,1.3741,1.375,1.3776,1.3832,1.3866,1.3908,1.3957,1.398,1.4022,1.4057,1.4118,1.4121,1.4151,1.4171,1.4196,1.4225,1.4197,1.4198,1.4199,1.4276,1.4272,1.4278,1.4233,1.4234,1.4235,1.4272,0,1.3704,1.378,1.3809,1.387,1.391,1.3931,1.3968,1.4006,1.4032,1.4068,1.4097,1.4139,1.4141,1.4159,1.4185,1.4216,1.424,1.4214,1.4265,1.4266,1.4251,1.4285,1.4282,1.4315,1.4277,1.4278,1.4279,0,1.3758,1.3799,1.3865,1.3915,1.3933,1.3965,1.4011,1.4047,1.409,1.4107,1.4139,1.4158,1.4201,1.4194,1.4254,1.4235,1.4257,1.4275,1.4277,1.4283,1.4273,1.429,1.4326,1.4331,1.4288,1.4287,1.4286,0,1.3766,1.3838,1.3887,1.3908,1.3968,1.399,1.4016,1.4058,1.4085,1.4126,1.4144,1.4189,1.4213,1.4248,1.4277,1.427,1.4334,1.4329,1.4348,1.4347,1.436,1.4359,1.44,1.4377,1.4377,1.4377,1.4376,0,1.3804,1.3843,1.3891,1.392,1.3964,1.3996,1.4038,1.4065,1.4102,1.4137,1.4159,1.419,1.4228,1.4265,1.4288,1.4333,1.4344,1.4359,1.4364,1.4356,1.4354,1.4371,1.4369,1.4378,1.4378,1.4377,1.4377,0,1.3821,1.3855,1.3908,1.396,1.3974,1.4004,1.4048,1.4077,1.4103,1.4147,1.4159,1.42,1.4244,1.4277,1.4334,1.435,1.4397,1.4404,1.4383,1.4385,1.4402,1.4399,1.4454,1.4462,1.4434,1.4435,1.4435,0,1.3842,1.3873,1.3928,1.3952,1.3978,1.4017,1.4045,1.4077,1.4105,1.4155,1.4178,1.4223,1.4261,1.433,1.4365,1.4408,1.4415,1.4431,1.4422,1.4412,1.4414,1.4411,1.4414,1.4432,1.4432,1.4432,1.4433,0,1.3877,1.3891,1.3931,1.3975,1.4007,1.4044,1.4081,1.41,1.4139,1.4168,1.4213,1.4242,1.43,1.4344,1.4391,1.4417,1.4431,1.4435,1.4442,1.4433,1.4419,1.4426,1.4385,1.4434,1.4434,1.4433,1.4433,1.4433,1.3896,1.3923,1.3965,1.4008,1.4039,1.4072,1.4102,1.4131,1.4169,1.4219,1.4236,1.4281,1.4322,1.4386,1.4413,1.4449,1.4449,1.4458,1.4461,1.4462,1.4461,1.4414,1.4457,1.4457,1.4457,1.4457,1.4457,0,1.3929,1.3958,1.3996,1.4047,1.408,1.409,1.4131,1.4158,1.4198,1.4235,1.4272,1.4322,1.4365,1.4403,1.4447,1.4468,1.4476,1.4479,1.4477,1.4482,1.4459,1.4448,1.4472,1.4472,1.4472,1.4472,1.4472,1.4472,1.3951,1.3997,1.4017,1.4078,1.4106,1.4151,1.4173,1.4204,1.4233,1.4289,1.4324,1.4349,1.4386,1.4433,1.4472,1.4482,1.4497,1.4498,1.4509,1.4486,1.4484,1.4483,1.4473,1.4501,1.4501,1.453,1.453,1.453]},{"header":{"parameterUnit":"m.s-1","parameterCategory":1,"la1":30.2991,"la2":30.254,"lo1":-89.0895,"lo2":-89.0444,"dy":0.0017,"dx":0.0017,"nx":28,"ny":28,"refTime":"2023-07-25T21:00:00:Z","depth":0,"parameterNumber":3,"parameterNumberName":"V-component_of_WINDS"},"data":[0,0,0,0,0,0,0,0,0,0,0,0,0,0,0,0,0,0,0,0,0,0,0,0,0,0,0,0,0,0,0,0,0,0,0,0,0,0,0,0,0,0,0,0,0,0,0,0,0,0,0,0,0,0,0,0,0,0,2.391,2.391,0,2.3863,2.3862,2.3862,2.3791,2.379,2.3789,2.3788,2.374,2.374,2.3739,0,0,0,0,0,0,0,0,0,0,0,0,0,2.3939,2.3939,2.391,2.391,2.3909,2.3863,2.3862,2.3862,2.3791,2.379,2.3788,2.3787,2.374,2.374,2.3739,0,0,0,0,0,0,0,0,0,0,0,0,0,2.3913,2.3939,2.391,2.3868,2.3864,2.3863,2.3862,2.3862,2.3792,2.379,2.3788,2.3786,2.374,2.374,2.3739,2.3776,0,0,2.3739,2.3739,0,0,0,0,0,0,0,0,2.3914,2.3912,2.3875,2.3871,2.3866,2.3831,2.3855,2.3833,2.3792,2.3819,2.3787,2.3785,2.3772,2.3769,2.3764,2.3774,2.3772,2.3739,2.3739,2.3739,2.3739,0,0,0,0,0,0,0,2.3916,2.3913,2.3891,2.3875,2.3869,2.3852,2.3846,2.385,2.3807,2.3817,2.3811,2.3807,2.3769,2.3764,2.3762,2.3771,2.3739,2.3739,2.3739,2.3739,2.3806,2.3807,0,0,0,0,0,0,2.3924,2.3915,2.3893,2.389,2.3886,2.3853,2.3846,2.3844,2.3806,2.3799,2.3808,2.3804,2.3766,2.3763,2.376,2.3799,2.3739,2.3739,2.3738,2.3804,2.3806,2.3808,0,0,0,0,0,0,2.3925,2.3923,2.3895,2.3901,2.3896,2.3854,2.3853,2.3844,2.384,2.38,2.3792,2.3812,2.3764,2.3761,2.3772,2.3796,2.3738,2.3738,2.3801,2.3804,2.3807,2.3877,0,0,0,0,0,0,2.3926,2.3923,2.3937,2.3902,2.3896,2.3908,2.3854,2.3845,2.3839,2.3833,2.3801,2.3794,2.3762,2.3773,2.3772,2.3795,2.3738,2.3799,2.3803,2.3806,2.3872,2.3882,2.389,0,0,0,0,0,2.3927,2.3959,2.3938,2.3936,2.3912,2.3909,2.3906,2.3869,2.3842,2.3855,2.3829,2.3795,2.3794,2.3774,2.3773,2.3796,2.3797,2.3802,2.3806,2.3868,2.388,2.389,0,0,0,0,0,0,2.3999,2.3954,2.393,2.3952,2.3935,2.3897,2.3913,2.3882,2.3873,2.3867,2.3821,2.3815,2.3831,2.3815,2.3794,2.3828,2.379,2.3794,2.3838,2.3849,2.3858,2.386,2.3738,0,0,0,0,0,2.4017,2.4018,2.3979,2.4002,2.3994,2.3955,2.3953,2.3925,2.3906,2.3898,2.3874,2.3856,2.3851,2.3849,2.3843,2.387,2.3861,2.3885,2.3894,2.3901,2.3905,2.3915,2.3925,2.3822,2.3822,2.3822,0,0,2.4055,2.403,2.4034,2.4015,2.3999,2.4001,2.395,2.3954,2.3955,2.3899,2.3907,2.3889,2.3866,2.3885,2.3892,2.3872,2.3932,2.3907,2.3913,2.3912,2.3921,2.3931,2.3939,2.3825,2.3824,2.3824,0,0,2.4124,2.4106,2.4122,2.4107,2.4082,2.4056,2.406,2.4027,2.4012,2.402,2.3977,2.3978,2.3971,2.3956,2.3948,2.401,2.3978,2.401,2.4055,2.4066,2.4074,2.4081,2.4102,2.411,2.4014,2.4014,2.4014,0,2.4173,2.4174,2.4134,2.4141,2.4133,2.4083,2.4098,2.4085,2.406,2.4056,2.4034,2.4023,2.4005,2.4018,2.4033,2.4029,2.4031,2.4012,2.4076,2.4083,2.4089,2.4108,2.4116,2.4018,2.4017,2.4017,2.4017,0,2.4236,2.4237,2.4253,2.4229,2.4224,2.4235,2.4196,2.4195,2.4168,2.4144,2.4152,2.4128,2.4115,2.4116,2.4091,2.4125,2.4113,2.4085,2.4045,2.4103,2.412,2.4127,2.4023,2.4022,2.4021,2.402,0,0,2.4348,2.4302,2.4308,2.4296,2.4265,2.4265,2.4274,2.4261,2.426,2.4245,2.4249,2.4245,2.4217,2.4208,2.418,2.419,2.4238,2.4159,2.4158,2.4173,2.4273,2.4293,2.4302,2.4217,2.4218,2.4219,2.4274,0,2.4409,2.4421,2.4385,2.4405,2.4405,2.4357,2.4364,2.4345,2.4323,2.4319,2.4294,2.429,2.4256,2.4249,2.4257,2.4231,2.4257,2.4226,2.422,2.422,2.4225,2.4311,2.4333,2.4386,2.428,2.4282,2.4282,0,2.4483,2.447,2.4491,2.4457,2.4456,2.4463,2.4447,2.4445,2.4422,2.4405,2.4394,2.4361,2.4366,2.4329,2.4335,2.4314,2.431,2.4296,2.4297,2.4294,2.4254,2.4309,2.4402,2.441,2.4293,2.4292,2.4291,0,2.456,2.4549,2.4559,2.455,2.4512,2.4518,2.4502,2.4478,2.4472,2.4458,2.4454,2.4441,2.4434,2.4425,2.4389,2.4366,2.4398,2.4358,2.4382,2.4383,2.439,2.439,2.4482,2.439,2.439,2.439,2.439,0,2.4631,2.4645,2.4592,2.4599,2.4612,2.4571,2.4585,2.4565,2.4544,2.4544,2.4502,2.4504,2.4457,2.4453,2.4425,2.4432,2.443,2.4415,2.4407,2.4418,2.442,2.4413,2.4408,2.4392,2.4391,2.4391,2.4391,0,2.4719,2.4685,2.4692,2.4656,2.4647,2.4658,2.4626,2.463,2.4605,2.4606,2.4604,2.4564,2.4557,2.452,2.4505,2.4486,2.4503,2.4488,2.451,2.4505,2.453,2.4527,2.462,2.4629,2.4533,2.4534,2.4535,0,2.4766,2.4776,2.474,2.4737,2.4723,2.472,2.4713,2.4672,2.4667,2.4642,2.4648,2.4638,2.4627,2.4618,2.4587,2.4574,2.4558,2.4592,2.4556,2.4566,2.4556,2.4555,2.4555,2.4599,2.46,2.4601,2.4602,0,2.4853,2.4835,2.4827,2.4813,2.4806,2.4793,2.4778,2.4778,2.4733,2.4729,2.4721,2.4712,2.4696,2.4686,2.4668,2.4651,2.4618,2.4614,2.4618,2.4628,2.4639,2.4631,2.4529,2.4611,2.461,2.461,2.4609,2.4609,2.492,2.4926,2.4901,2.4893,2.4877,2.4863,2.4864,2.4839,2.4832,2.4815,2.4791,2.4786,2.4762,2.4735,2.472,2.4715,2.4697,2.4704,2.4705,2.4707,2.4711,2.4642,2.4712,2.4711,2.4711,2.4711,2.4711,0,2.5003,2.4984,2.4978,2.4957,2.495,2.4921,2.4902,2.4898,2.4894,2.4875,2.4865,2.4855,2.4844,2.4812,2.4798,2.48,2.4784,2.4797,2.4796,2.4792,2.473,2.4726,2.481,2.481,2.481,2.481,2.481,2.481,2.5045,2.5052,2.5031,2.5029,2.501,2.5005,2.4996,2.4983,2.4967,2.4957,2.4948,2.4928,2.4903,2.4886,2.4874,2.4865,2.4861,2.4879,2.4864,2.4806,2.4797,2.4788,2.4784,2.4879,2.4879,2.4927,2.4927,2.4928]}]]